Temp
-17 -17 -18 -18 -18 -18 -18 -18 -19 -19 -19 -19 -19 -19 -19 -19 -19 -19 -19 -19 -19 -20 -20 -20 -20 -20 -20 -20 -19 -19 -18 -18 -17 -17 -17 -17 -17 -17 -17 -17 -17 -17
-17 -18 -18 -18 -18 -18 -18 -19 -19 -19 -19 -19 -19 -19 -19 -19 -19 -19 -19 -20 -20 -20 -20 -21 -21 -20 -20 -20 -20 -20 -19 -19 -18 -18 -17 -18 -18 -17 -17 -17 -17 -17
-17 -18 -18 -18 -18 -19 -19 -19 -19 -19 -19 -19 -19 -19 -19 -19 -19 -20 -20 -20 -20 -20 -21 -21 -21 -21 -21 -21 -20 -20 -20 -19 -19 -19 -18 -18 -18 -18 -17 -17 -17 -17
-17 -17 -18 -18 -18 -18 -19 -19 -19 -19 -19 -19 -19 -19 -19 -19 -20 -20 -20 -20 -20 -21 -21 -21 -21 -21 -21 -21 -21 -20 -20 -20 -19 -19 -19 -18 -18 -18 -18 -18 -17 -17
-17 -17 -18 -18 -18 -18 -18 -19 -19 -19 -19 -19 -19 -19 -19 -19 -19 -20 -20 -20 -20 -21 -21 -21 -21 -22 -22 -21 -21 -21 -20 -20 -20 -19 -19 -18 -18 -18 -18 -18 -18 -18
-17 -17 -17 -18 -18 -18 -18 -19 -19 -19 -19 -19 -19 -19 -19 -19 -19 -19 -20 -20 -20 -20 -21 -21 -21 -21 -22 -22 -21 -21 -20 -20 -19 -19 -18 -18 -17 -17 -18 -18 -18 -18
-17 -17 -17 -18 -18 -18 -18 -18 -19 -19 -19 -19 -19 -19 -19 -19 -19 -19 -20 -20 -20 -20 -21 -21 -21 -21 -22 -22 -21 -21 -20 -20 -19 -19 -18 -18 -17 -17 -17 -17 -18 -18
-16 -17 -17 -17 -18 -18 -18 -18 -19 -19 -19 -19 -19 -19 -19 -19 -19 -20 -20 -20 -20 -20 -20 -21 -21 -21 -21 -22 -22 -21 -20 -20 -20 -19 -18 -18 -17 -17 -17 -17 -18 -18
-16 -16 -17 -17 -17 -18 -18 -18 -18 -19 -19 -19 -19 -19 -19 -19 -19 -19 -20 -20 -20 -20 -20 -20 -21 -21 -21 -21 -21 -21 -20 -20 -19 -19 -18 -18 -17 -17 -17 -17 -17 -18
-16 -16 -16 -17 -17 -17 -18 -18 -18 -19 -19 -19 -19 -19 -19 -19 -19 -19 -20 -20 -20 -20 -20 -20 -20 -20 -21 -21 -21 -21 -20 -20 -19 -19 -18 -18 -17 -17 -17 -17 -17 -17
-16 -16 -16 -17 -17 -17 -17 -18 -18 -18 -19 -19 -19 -19 -19 -19 -19 -19 -20 -19 -19 -20 -20 -20 -20 -20 -20 -21 -20 -20 -20 -20 -19 -19 -18 -18 -17 -17 -17 -17 -17 -17
-16 -16 -16 -16 -17 -17 -17 -17 -18 -18 -18 -19 -19 -19 -19 -19 -19 -20 -20 -20 -19 -19 -20 -20 -20 -20 -20 -20 -20 -20 -20 -20 -19 -19 -19 -18 -18 -18 -17 -17 -17 -17
-16 -16 -16 -16 -17 -17 -17 -17 -17 -18 -18 -18 -19 -19 -19 -19 -19 -20 -20 -20 -19 -19 -19 -20 -20 -20 -20 -20 -20 -20 -20 -20 -19 -19 -19 -19 -19 -18 -18 -18 -18 -18
-15 -16 -16 -16 -17 -17 -17 -17 -17 -18 -18 -18 -19 -19 -19 -19 -19 -19 -20 -20 -20 -19 -19 -19 -20 -20 -20 -19 -20 -20 -20 -20 -20 -19 -19 -19 -19 -19 -19 -19 -19 -18
-15 -16 -16 -16 -17 -17 -17 -17 -17 -17 -18 -18 -19 -19 -19 -19 -19 -19 -19 -20 -20 -19 -19 -20 -20 -20 -20 -19 -19 -20 -20 -20 -20 -20 -20 -20 -20 -19 -19 -19 -19 -19
-15 -16 -16 -16 -17 -17 -17 -17 -17 -17 -18 -18 -18 -19 -19 -19 -19 -19 -19 -19 -19 -19 -19 -20 -20 -20 -20 -19 -19 -19 -20 -20 -20 -20 -20 -20 -20 -20 -20 -20 -20 -20
-16 -16 -16 -16 -17 -17 -17 -17 -17 -17 -17 -18 -18 -19 -19 -19 -19 -19 -19 -19 -19 -19 -19 -20 -20 -20 -20 -19 -19 -19 -19 -20 -20 -20 -21 -20 -20 -20 -20 -20 -20 -20
-16 -16 -16 -16 -17 -17 -17 -17 -17 -17 -18 -18 -18 -18 -19 -19 -19 -19 -20 -20 -19 -19 -19 -20 -20 -20 -20 -20 -20 -20 -20 -19 -20 -20 -20 -21 -20 -20 -21 -21 -20 -20
-16 -16 -16 -17 -17 -17 -17 -17 -17 -18 -18 -18 -18 -18 -19 -19 -19 -19 -20 -20 -19 -19 -19 -20 -20 -20 -20 -20 -20 -20 -20 -20 -19 -19 -20 -20 -20 -20 -21 -21 -20 -20
-16 -16 -17 -17 -17 -17 -17 -17 -17 -18 -18 -18 -18 -18 -19 -19 -19 -19 -19 -20 -20 -19 -19 -20 -20 -20 -20 -21 -21 -21 -21 -21 -20 -19 -19 -20 -20 -20 -21 -21 -20 -20
-17 -17 -17 -17 -17 -17 -17 -17 -17 -17 -18 -18 -18 -18 -19 -19 -19 -19 -19 -20 -20 -19 -19 -20 -20 -20 -20 -21 -21 -21 -21 -21 -21 -20 -20 -19 -19 -20 -20 -20 -21 -20
-17 -17 -17 -17 -17 -17 -17 -17 -17 -17 -18 -18 -18 -18 -19 -19 -19 -19 -19 -20 -19 -19 -19 -20 -20 -20 -20 -21 -21 -21 -22 -22 -21 -21 -21 -20 -20 -20 -20 -20 -20 -20
-17 -17 -17 -17 -18 -18 -18 -17 -17 -17 -18 -18 -18 -18 -19 -19 -19 -19 -19 -20 -19 -19 -19 -19 -20 -20 -21 -21 -22 -22 -22 -22 -21 -21 -21 -21 -21 -20 -20 -19 -20 -20
-17 -17 -17 -18 -18 -18 -18 -18 -18 -18 -18 -18 -18 -18 -19 -19 -19 -19 -20 -20 -19 -19 -19 -19 -20 -21 -21 -21 -21 -22 -22 -22 -21 -21 -21 -21 -21 -21 -20 -20 -19 -20
-17 -17 -17 -18 -18 -18 -18 -18 -18 -18 -18 -18 -18 -19 -19 -19 -19 -20 -20 -20 -19 -19 -19 -19 -20 -21 -21 -21 -21 -22 -22 -22 -21 -21 -21 -22 -21 -21 -21 -20 -20 -20
-17 -17 -17 -17 -18 -18 -18 -18 -18 -18 -18 -18 -18 -19 -19 -19 -20 -20 -20 -20 -20 -19 -19 -19 -20 -21 -21 -21 -21 -21 -22 -22 -21 -21 -22 -22 -21 -21 -21 -20 -20 -20
Height
2939 2938 2936 2935 2934 2933 2932 2930 2928 2927 2925 2923 2922 2920 2918 2916 2914 2911 2909 2906 2903 2900 2897 2895 2892 2891 2889 2889 2888 2888 2889 2890 2891 2892 2894 2896 2898 2900 2902 2904 2906 2908
2938 2937 2935 2934 2933 2931 2930 2928 2927 2925 2924 2922 2920 2918 2916 2914 2912 2909 2906 2903 2901 2897 2894 2891 2888 2885 2884 2882 2882 2881 2882 2883 2884 2885 2887 2889 2891 2893 2895 2898 2900 2902
2937 2935 2934 2933 2931 2930 2928 2927 2925 2924 2922 2920 2918 2916 2914 2912 2910 2907 2904 2901 2898 2895 2892 2888 2884 2881 2878 2877 2876 2875 2876 2876 2877 2879 2880 2883 2885 2887 2889 2892 2894 2897
2935 2934 2933 2931 2930 2928 2927 2925 2924 2922 2920 2919 2916 2914 2912 2910 2908 2905 2902 2899 2896 2893 2890 2885 2881 2878 2875 2872 2871 2870 2871 2871 2872 2874 2875 2877 2880 2882 2884 2887 2889 2891
2934 2932 2931 2929 2928 2927 2925 2924 2922 2921 2919 2917 2915 2913 2911 2908 2906 2903 2901 2897 2894 2891 2888 2884 2880 2876 2872 2869 2867 2866 2866 2867 2868 2869 2870 2872 2874 2876 2879 2881 2884 2886
2932 2930 2929 2927 2926 2925 2923 2922 2920 2919 2917 2916 2913 2911 2909 2907 2904 2901 2899 2896 2892 2889 2886 2882 2878 2874 2871 2867 2865 2863 2863 2863 2864 2865 2866 2868 2870 2872 2874 2877 2879 2881
2929 2928 2926 2925 2924 2922 2921 2920 2918 2917 2915 2914 2912 2909 2907 2905 2902 2900 2897 2894 2891 2887 2884 2881 2877 2873 2870 2866 2863 2862 2861 2860 2861 2861 2862 2864 2866 2868 2871 2873 2875 2877
2928 2926 2924 2923 2921 2920 2919 2917 2916 2915 2913 2912 2910 2907 2905 2903 2900 2898 2895 2892 2889 2886 2882 2879 2876 2873 2869 2866 2863 2861 2859 2859 2859 2859 2860 2862 2863 2866 2868 2870 2871 2872
2925 2924 2922 2920 2919 2917 2916 2915 2913 2912 2910 2909 2907 2905 2903 2901 2898 2896 2893 2891 2888 2884 2881 2878 2875 2872 2869 2866 2863 2860 2859 2858 2857 2858 2859 2860 2861 2863 2865 2867 2868 2868
2923 2921 2919 2917 2916 2915 2913 2912 2911 2909 2908 2906 2904 2903 2901 2899 2896 2894 2891 2889 2886 2883 2880 2877 2874 2872 2869 2866 2863 2861 2859 2857 2857 2857 2857 2858 2859 2861 2862 2863 2864 2865
2920 2918 2916 2915 2913 2912 2910 2909 2908 2906 2905 2903 2901 2900 2898 2896 2894 2892 2889 2887 2885 2882 2879 2876 2873 2870 2868 2865 2863 2861 2859 2857 2856 2855 2855 2856 2857 2858 2859 2860 2861 2861
2917 2915 2914 2912 2910 2909 2907 2906 2904 2903 2902 2900 2898 2897 2895 2894 2892 2889 2887 2885 2882 2880 2877 2875 2872 2869 2867 2865 2863 2860 2858 2856 2855 2855 2854 2854 2854 2855 2856 2856 2857 2857
2914 2912 2911 2909 2907 2905 2904 2903 2901 2900 2898 2897 2895 2893 2892 2891 2889 2887 2884 2882 2880 2878 2875 2873 2871 2868 2865 2863 2862 2860 2858 2856 2855 2854 2853 2852 2852 2852 2852 2853 2853 2854
2911 2909 2907 2906 2904 2902 2901 2899 2898 2896 2895 2893 2892 2890 2889 2887 2886 2884 2882 2879 2877 2875 2873 2871 2868 2866 2864 2862 2860 2859 2857 2855 2854 2853 2852 2851 2850 2850 2850 2850 2850 2850
2908 2906 2904 2902 2900 2899 2897 2895 2894 2893 2891 2890 2888 2887 2885 2884 2882 2880 2878 2877 2874 2872 2870 2868 2866 2864 2861 2860 2859 2857 2856 2855 2853 2852 2851 2850 2849 2848 2848 2848 2847 2847
2904 2902 2900 2899 2897 2895 2893 2892 2890 2889 2887 2886 2885 2883 2882 2880 2879 2877 2875 2873 2872 2870 2868 2866 2863 2861 2859 2858 2856 2855 2854 2853 2852 2851 2850 2849 2848 2847 2846 2846 2845 2845
2901 2899 2897 2895 2893 2891 2890 2888 2887 2885 2884 2882 2881 2880 2878 2877 2875 2874 2872 2870 2868 2867 2865 2863 2860 2858 2857 2855 2854 2853 2852 2851 2851 2850 2849 2847 2847 2846 2845 2844 2844 2843
2897 2895 2893 2891 2889 2888 2886 2884 2883 2881 2880 2879 2877 2876 2875 2873 2872 2870 2869 2867 2865 2864 2862 2860 2858 2856 2854 2853 2852 2850 2849 2848 2848 2848 2847 2846 2845 2844 2844 2843 2842 2842
2893 2891 2890 2888 2886 2884 2882 2881 2879 2878 2876 2875 2874 2872 2871 2870 2869 2867 2866 2864 2862 2861 2860 2858 2856 2854 2852 2851 2849 2848 2847 2846 2845 2845 2845 2845 2844 2843 2842 2842 2841 2840
2889 2887 2886 2884 2882 2880 2878 2877 2875 2874 2872 2871 2870 2869 2867 2867 2866 2864 2863 2861 2860 2859 2858 2856 2854 2852 2851 2849 2847 2846 2845 2844 2843 2842 2842 2842 2842 2841 2841 2840 2839 2839
2884 2883 2881 2879 2878 2876 2874 2873 2871 2870 2868 2867 2866 2865 2864 2863 2862 2861 2860 2859 2857 2856 2856 2854 2852 2850 2849 2847 2846 2844 2843 2842 2841 2840 2839 2839 2839 2839 2839 2838 2837 2836
2880 2878 2877 2875 2873 2872 2870 2869 2867 2865 2864 2863 2862 2861 2860 2859 2858 2858 2857 2856 2854 2853 2853 2852 2850 2848 2846 2845 2844 2843 2842 2840 2839 2838 2837 2837 2836 2836 2836 2835 2835 2834
2875 2874 2873 2871 2869 2868 2866 2864 2863 2862 2860 2859 2858 2857 2856 2855 2855 2854 2853 2853 2852 2850 2850 2849 2847 2845 2844 2843 2842 2842 2841 2839 2837 2836 2835 2834 2834 2833 2832 2832 2832 2832
2871 2870 2868 2867 2865 2864 2862 2861 2859 2858 2856 2855 2854 2854 2853 2852 2851 2851 2850 2849 2849 2848 2847 2846 2844 2842 2842 2841 2840 2840 2839 2837 2835 2834 2833 2832 2831 2830 2829 2829 2829 2829
2867 2866 2864 2863 2861 2860 2858 2857 2855 2854 2852 2851 2850 2850 2849 2848 2848 2848 2847 2846 2846 2845 2844 2843 2842 2840 2839 2839 2838 2837 2836 2834 2832 2831 2830 2829 2828 2827 2826 2826 2826 2826
2864 2862 2860 2859 2857 2856 2855 2853 2851 2850 2848 2847 2846 2846 2846 2845 2844 2845 2845 2844 2843 2842 2841 2840 2839 2838 2837 2836 2835 2834 2833 2831 2830 2828 2827 2826 2825 2824 2823 2823 2823 2823
Wind_Speed
16 16 16 16 16 16 16 16 17 18 19 20 20 21 22 23 25 26 27 27 28 28 28 28 28 29 31 33 35 37 40 42 44 45 45 44 46 49 49 48 48 48
16 16 16 16 17 17 18 18 18 19 19 20 20 21 22 23 25 27 28 29 29 29 28 27 26 26 27 29 31 34 36 39 41 43 44 43 45 47 48 48 48 47
15 16 16 17 18 18 19 19 19 20 20 20 21 21 22 23 24 26 27 29 29 29 29 28 25 24 23 25 27 30 32 35 37 39 41 42 42 45 47 47 47 46
15 15 16 17 18 18 19 19 19 20 20 20 20 20 21 23 24 25 26 28 29 29 29 29 26 23 21 21 23 25 27 30 32 35 37 38 38 41 44 45 45 45
15 16 16 17 18 18 18 19 19 19 19 19 19 20 21 23 24 25 27 28 29 29 29 29 27 24 21 19 19 20 22 24 26 29 32 33 34 37 40 42 42 43
15 16 16 17 18 18 18 18 18 18 18 18 19 20 21 23 24 26 27 28 29 29 29 29 28 25 22 19 17 16 17 19 21 24 27 29 30 32 35 37 39 40
16 16 16 17 17 17 17 17 17 17 17 18 19 20 21 23 24 26 27 28 29 29 28 28 27 26 23 21 17 15 14 15 17 19 22 23 24 26 29 32 34 36
16 16 17 17 17 17 17 17 17 17 18 18 19 20 21 22 24 25 27 28 29 30 28 27 27 26 24 22 19 16 13 13 13 15 16 17 19 20 22 26 29 32
17 17 17 17 17 18 18 18 18 18 19 19 19 20 21 22 24 25 27 28 29 30 29 27 25 24 23 22 20 17 13 11 11 11 12 13 14 16 18 20 24 27
19 18 18 18 18 18 18 18 19 19 20 21 20 20 20 22 24 26 27 28 28 29 29 28 25 23 23 21 19 17 14 12 10 10 11 12 13 15 16 18 20 22
20 19 19 19 18 19 19 19 20 20 21 21 21 21 21 22 24 26 27 28 28 28 28 28 26 23 21 21 20 18 15 13 10 10 11 12 14 15 17 18 19 20
22 21 20 20 20 20 20 20 20 21 21 22 22 22 22 23 24 26 27 28 28 27 26 27 27 24 21 20 19 18 17 15 12 11 11 12 14 16 17 19 20 20
24 23 22 21 21 21 21 21 21 21 22 22 23 23 24 24 24 25 26 27 27 27 26 26 26 25 23 20 19 18 17 16 15 12 11 11 12 14 16 17 19 20
26 25 24 23 23 23 22 22 22 22 22 23 24 24 25 25 24 24 26 27 27 26 26 26 27 26 25 21 18 17 16 16 15 13 12 11 11 12 13 14 16 17
27 27 26 25 24 24 24 24 24 23 24 24 24 25 25 26 26 26 26 26 26 26 26 26 27 27 26 23 18 16 15 14 15 14 12 10 9 9 10 11 12 14
28 27 27 26 26 25 25 25 25 24 24 24 25 25 26 26 25 25 26 26 26 25 25 26 27 26 25 22 18 16 14 13 13 13 13 11 10 9 9 9 10 11
29 28 27 27 26 26 26 26 26 26 25 24 25 25 25 25 25 24 25 25 25 25 25 26 26 25 23 20 18 16 15 13 11 11 12 12 11 9 9 9 10 10
28 28 27 27 26 26 26 26 26 26 26 25 24 24 24 24 24 24 24 25 25 25 25 25 24 22 21 19 18 17 16 15 13 12 12 13 12 10 9 10 10 10
28 28 27 26 26 26 26 27 27 26 26 25 24 23 23 22 23 23 23 24 24 24 24 23 21 20 19 18 18 17 17 17 15 14 13 13 13 12 10 11 11 11
29 28 27 26 26 26 26 26 27 26 26 25 24 23 22 22 21 22 22 23 23 22 21 20 18 18 17 16 17 17 18 18 18 17 14 13 14 14 13 13 13 14
28 28 28 27 27 26 26 26 26 26 26 25 24 23 22 21 21 20 20 22 22 21 19 17 16 16 15 14 14 14 15 17 18 18 16 14 14 15 16 16 16 16
28 28 28 28 27 27 27 26 26 26 26 25 24 23 22 21 20 20 19 20 21 21 18 15 15 14 13 13 12 12 13 16 17 18 17 16 16 15 16 18 18 18
27 27 27 27 27 27 27 27 26 26 26 26 24 22 21 20 19 19 19 19 19 20 18 15 13 12 12 12 9 11 15 18 18 19 19 18 17 16 16 17 18 18
26 26 26 26 26 27 27 27 27 26 25 25 24 22 21 20 19 17 18 18 18 18 18 16 12 10 11 11 6 7 13 16 15 16 18 18 17 16 15 16 17 17
25 25 25 25 25 25 26 26 26 26 25 24 24 22 20 20 18 16 16 17 17 17 17 15 12 10 12 13 7 5 11 14 12 13 15 16 16 16 14 14 16 17
26 25 25 25 25 24 24 25 26 26 25 24 23 22 20 19 18 15 14 16 16 15 15 15 13 12 14 15 12 9 12 14 14 15 16 17 17 16 15 14 15 16
Wind_Direction
356 356 356 353 349 347 347 348 348 349 347 346 348 349 348 347 345 344 342 338 333 326 318 308 297 287 278 271 266 262 257 254 251 250 249 246 243 243 244 245 246 247
354 353 351 348 345 343 344 345 344 343 343 343 345 347 347 347 347 346 346 345 343 338 331 322 310 298 285 276 269 263 259 256 252 249 247 245 243 242 242 243 245 246
349 348 345 343 342 341 340 340 339 339 340 340 341 344 346 346 346 346 345 345 345 344 340 333 324 311 297 283 274 266 261 257 254 251 249 246 244 243 242 243 245 248
343 341 340 339 338 337 337 336 336 336 337 339 340 342 344 346 345 344 343 343 343 344 344 342 335 325 312 297 283 273 266 260 256 253 252 249 245 243 243 243 245 247
337 336 334 334 333 333 333 333 333 333 335 337 338 340 341 343 343 343 342 341 340 341 343 345 343 336 328 316 300 285 274 266 260 256 253 251 246 243 243 243 245 247
331 330 329 329 328 328 328 329 330 330 331 332 333 335 337 340 342 343 342 341 339 338 339 343 346 345 342 337 323 305 287 272 264 258 253 250 247 243 242 244 245 247
325 324 324 324 322 322 323 324 325 324 324 327 328 330 333 337 340 342 343 342 340 338 337 339 345 348 349 348 344 331 309 287 270 259 253 249 245 243 243 246 248 250
319 320 319 319 317 316 317 318 319 318 318 321 324 326 329 333 337 338 341 342 341 340 338 337 340 346 350 351 351 348 333 310 287 267 256 248 244 243 245 248 251 253
315 316 316 316 315 313 313 313 313 312 313 315 318 321 325 328 332 334 336 338 339 341 341 338 336 340 346 350 351 352 347 330 307 282 264 253 248 248 250 252 254 257
310 312 313 313 312 311 309 308 308 308 308 311 313 316 319 322 325 328 330 332 334 337 340 339 335 334 340 344 348 350 349 339 321 300 280 266 258 256 256 256 257 260
305 307 308 309 308 307 307 305 304 304 305 307 309 311 314 317 320 323 325 326 328 332 337 338 335 331 331 336 341 345 346 340 327 309 292 278 268 263 260 260 261 261
300 302 303 303 303 302 303 303 302 302 302 303 305 306 308 312 316 319 321 322 323 327 331 335 334 330 325 326 331 337 340 337 331 315 299 286 276 269 265 262 262 261
296 298 298 298 299 298 298 299 299 299 300 301 302 304 306 309 312 316 320 320 321 323 326 331 333 329 323 318 321 328 333 333 331 325 311 297 286 278 272 269 266 263
294 295 296 296 296 296 296 296 296 296 297 299 300 303 305 307 310 314 317 319 320 321 324 328 330 327 323 317 313 316 323 326 327 328 323 311 300 291 284 278 272 269
293 293 295 295 294 295 295 295 296 296 296 296 297 299 302 305 309 312 316 319 320 320 323 326 326 323 320 317 312 306 310 317 320 322 324 319 312 306 297 286 278 273
292 293 294 293 293 293 293 294 295 295 295 296 296 297 300 303 307 311 314 318 319 320 323 323 321 317 315 317 315 305 299 301 306 311 315 316 316 313 304 295 287 279
293 293 292 292 292 291 292 292 293 294 294 295 296 297 299 302 306 310 314 316 318 320 322 321 317 315 314 314 313 307 299 292 288 291 296 302 308 309 305 301 295 289
294 293 293 292 292 291 291 291 291 292 293 294 295 296 298 302 306 309 312 315 317 320 321 320 316 313 313 311 308 305 301 294 285 275 274 283 293 297 296 296 295 293
296 295 294 293 293 292 291 291 290 291 292 292 293 294 296 299 303 307 311 313 315 318 320 318 314 310 310 308 305 303 302 298 291 278 267 265 274 281 281 283 287 288
298 297 296 296 295 294 293 292 290 290 290 291 292 293 293 296 298 302 307 309 310 314 318 316 312 309 309 308 307 304 300 297 296 291 281 265 259 264 267 271 278 284
298 298 298 298 298 297 296 294 292 291 290 290 291 291 291 293 294 297 302 304 305 310 316 313 305 301 305 314 318 314 305 300 299 300 299 287 269 259 259 262 268 276
299 298 298 298 298 298 298 297 296 294 291 289 289 289 290 290 291 294 298 299 300 306 312 308 298 298 313 326 335 343 335 321 311 308 307 303 291 274 262 259 260 266
301 299 298 297 297 298 298 298 298 296 293 291 288 287 287 287 287 292 294 295 297 303 308 307 302 309 321 323 339 357 340 322 314 311 308 305 300 289 274 263 256 258
304 300 299 297 296 296 297 297 298 297 294 291 287 284 282 282 283 288 290 292 295 300 305 308 309 314 309 302 322 353 322 306 305 305 302 302 301 293 283 271 258 253
313 305 301 299 297 296 295 296 297 297 295 291 286 282 278 277 279 282 285 288 293 298 303 308 312 308 294 287 289 298 290 286 288 287 288 293 294 288 281 273 262 253
322 314 306 301 299 298 297 296 296 296 295 292 286 281 276 274 275 277 279 284 289 297 303 307 310 303 290 285 284 281 277 278 279 280 281 284 285 283 278 271 264 257